Date String (YYYY-MM-DD hh:mm:ss) UTC,Instrument flags,Ambient pressure (hPa),Sample flow (lpm),Bypass flow (lpm),Sample temperature (°C),Ambient temperature (°C),ASC tube jacket temperature (°C),LED temperature (°C),Box temperature (°C),Sample RH (%),Span deviation,Mass concentration (μg/m³),Mass concentration (μg/m³),Mass concentration (μg/m³)
DateTimeUTC,F1_M11,P_M11,Q1_M11,Q2_M11,T1_M11,T2_M11,T3_M11,T4_M11,T5_M11,U1_M11,ZSPAN_M11,X0_M11,X2_M11,X1_M11
2022-07-24 14:00:00,,0830.9,4.99,0.00,32.5,29.3,00.0,40.6,33.1,34.6,-000.1,0015.46,0010.27,0009.09
2022-07-24 14:01:00,,0830.9,5.00,0.00,32.6,28.6,00.0,40.5,33.0,34.7,-000.7,0015.52,0010.28,0009.10
2022-07-24 14:02:00,,0830.9,4.99,0.00,32.6,28.0,00.0,40.4,32.9,34.9,-001.0,0015.02,0010.30,0009.11
2022-07-24 14:03:00,,0830.9,5.00,0.00,32.6,27.8,00.0,40.4,32.8,33.9,-000.9,0014.94,0010.31,0009.08
2022-07-24 14:04:00,,0830.9,5.00,0.00,32.5,27.8,00.0,40.4,32.6,33.6,-000.7,0015.08,0010.26,0009.05
2022-07-24 14:05:00,,0830.9,5.00,0.00,32.4,27.9,00.0,40.4,32.6,34.0,-000.2,0015.09,0010.23,0009.03
2022-07-24 14:06:00,,0830.9,5.00,0.00,32.3,28.0,00.0,40.4,32.5,34.2,-000.3,0015.11,0010.20,0009.00
2022-07-24 14:07:00,,0830.9,5.00,0.00,32.2,28.2,00.0,40.4,32.5,34.3,-000.2,0015.02,0010.13,0008.98
2022-07-24 14:08:00,,0830.9,4.99,0.00,32.1,28.3,00.0,40.4,32.5,34.5,0000.0,0014.99,0010.09,0008.92
2022-07-24 14:09:00,,0830.9,5.01,0.00,32.1,28.5,00.0,40.4,32.5,34.8,0000.0,0015.32,0010.08,0008.87
2022-07-24 14:10:00,,0830.9,4.99,0.00,32.0,28.6,00.0,40.4,32.6,34.7,-000.0,0015.66,0010.01,0008.84
2022-07-24 14:11:00,,0830.9,5.01,0.00,32.0,28.7,00.0,40.4,32.6,35.1,0000.0,0015.45,0009.96,0008.84
2022-07-24 14:12:00,,0830.9,4.99,0.00,32.0,28.8,00.0,40.4,32.7,34.7,0000.2,0015.40,0009.93,0008.83
2022-07-24 14:13:00,,0830.9,5.01,0.00,32.2,28.9,00.0,40.4,32.8,34.3,0000.1,0015.31,0009.86,0008.78
2022-07-24 14:14:00,,0830.9,5.00,0.00,32.2,29.0,00.0,40.4,32.8,34.1,-000.2,0015.18,0009.84,0008.79
2022-07-24 14:15:00,,0830.9,4.99,0.00,32.2,29.1,00.0,40.4,32.8,34.4,-000.6,0015.07,0009.87,0008.79
2022-07-24 14:16:00,,0830.9,5.00,0.00,32.2,29.1,00.0,40.4,32.8,34.7,-001.0,0015.30,0009.92,0008.78
2022-07-24 14:17:00,,0830.9,5.00,0.00,32.2,29.2,00.0,40.4,32.8,34.7,-000.7,0015.18,0009.87,0008.76
2022-07-24 14:18:00,,0830.9,4.99,0.00,32.2,29.2,00.0,40.4,32.8,34.8,-000.3,0015.20,0009.84,0008.70
2022-07-24 14:19:00,,0830.9,5.01,0.00,32.2,29.3,00.0,40.4,32.8,34.9,-000.5,0015.76,0009.76,0008.64
2022-07-24 14:20:00,,0830.9,5.00,0.00,32.3,29.3,00.0,40.4,33.0,34.1,-000.1,0015.57,0009.67,0008.59
2022-07-24 14:21:00,,0830.9,5.00,0.00,32.3,29.4,00.0,40.4,33.0,34.2,0000.3,0015.24,0009.70,0008.55
2022-07-24 14:22:00,,0830.9,5.00,0.00,32.3,29.4,00.0,40.5,33.0,34.8,0000.4,0015.64,0009.70,0008.52
2022-07-24 14:23:00,,0830.9,5.00,0.00,32.4,29.3,00.0,40.5,33.0,35.5,0000.2,0015.69,0009.70,0008.49
2022-07-24 14:24:00,,0830.9,5.02,0.00,32.6,28.5,00.0,40.4,33.1,34.8,0000.2,0015.75,0009.74,0008.48
2022-07-24 14:25:00,,0830.9,4.99,0.00,32.7,27.9,00.0,40.3,33.0,33.6,0000.4,0015.89,0009.75,0008.45
2022-07-24 14:26:00,,0830.9,4.99,0.00,32.7,27.7,00.0,40.4,32.8,34.4,0000.5,0015.89,0009.76,0008.43
2022-07-24 14:27:00,,0830.9,5.00,0.00,32.5,27.8,00.0,40.4,32.6,34.5,0000.5,0015.77,0009.76,0008.45
2022-07-24 14:28:00,,0830.9,5.00,0.00,32.4,27.9,00.0,40.4,32.5,34.5,0000.4,0015.68,0009.79,0008.49
2022-07-24 14:29:00,,0830.9,5.00,0.00,32.4,28.0,00.0,40.4,32.5,34.7,0000.4,0015.77,0009.87,0008.56
2022-07-24 14:30:00,,0830.9,5.00,0.00,32.3,28.2,00.0,40.4,32.5,35.1,0000.6,0015.53,0009.99,0008.67
2022-07-24 14:31:00,,0830.8,5.00,0.00,32.3,28.4,00.0,40.4,32.6,35.6,0000.6,0015.84,0010.12,0008.76
2022-07-24 14:32:00,,0830.9,5.00,0.00,32.5,28.5,00.0,40.4,32.8,34.9,0000.7,0016.03,0010.14,0008.77
2022-07-24 14:33:00,,0831.0,5.01,0.00,32.7,28.6,00.0,40.4,32.9,33.9,0000.4,0015.61,0010.13,0008.76
2022-07-24 14:34:00,,0831.0,5.00,0.00,32.8,28.7,00.0,40.5,32.9,33.5,0000.5,0015.54,0010.10,0008.73
2022-07-24 14:35:00,,0830.9,5.01,0.00,32.8,28.9,00.0,40.5,32.9,33.4,0000.5,0015.46,0010.08,0008.76
2022-07-24 14:36:00,,0830.9,4.99,0.00,32.8,28.9,00.0,40.5,32.9,33.2,0000.3,0015.36,0010.09,0008.82
2022-07-24 14:37:00,,0830.9,4.99,0.00,32.8,29.0,00.0,40.6,32.9,33.4,0000.4,0015.41,0010.14,0008.87
2022-07-24 14:38:00,,0830.9,5.00,0.00,32.7,29.1,00.0,40.6,32.9,33.4,0000.5,0015.27,0010.09,0008.88
2022-07-24 14:39:00,,0830.9,5.01,0.00,32.7,29.2,00.0,40.7,32.9,33.5,0000.3,0015.28,0010.08,0008.86
2022-07-24 14:40:00,,0830.9,4.99,0.00,32.7,29.2,00.0,40.7,32.9,33.8,0000.3,0015.22,0010.06,0008.84
2022-07-24 14:41:00,,0830.9,4.99,0.00,32.6,29.3,00.0,40.7,32.9,34.2,0000.2,0015.06,0010.00,0008.80
2022-07-24 14:42:00,,0830.9,4.99,0.00,32.5,29.3,00.0,40.7,33.0,34.1,-000.2,0014.64,0009.98,0008.79
2022-07-24 14:43:00,,0830.9,5.01,0.00,32.5,29.4,00.0,40.7,33.0,34.2,-000.7,0014.46,0010.02,0008.83
2022-07-24 14:44:00,,0830.9,5.00,0.00,32.5,29.1,00.0,40.7,33.0,34.2,-000.4,0014.61,0010.04,0008.88
2022-07-24 14:45:00,,0830.9,5.01,0.00,32.4,28.3,00.0,40.6,32.9,34.4,-000.6,0014.81,0010.05,0008.91
2022-07-24 14:46:00,,0830.9,4.99,0.00,32.4,27.8,00.0,40.5,32.8,35.0,-001.0,0014.83,0010.07,0008.92
2022-07-24 14:47:00,,0830.9,5.01,0.00,32.3,27.7,00.0,40.5,32.7,35.2,-000.8,0014.86,0010.02,0008.87
2022-07-24 14:48:00,,0830.9,4.99,0.00,32.4,27.8,00.0,40.5,32.7,34.6,-000.7,0015.11,0009.93,0008.79
2022-07-24 14:49:00,,0831.0,5.01,0.00,32.4,27.9,00.0,40.4,32.6,34.6,-000.7,0015.06,0009.89,0008.74
2022-07-24 14:50:00,,0831.0,5.00,0.00,32.4,28.1,00.0,40.4,32.6,34.8,-000.7,0014.83,0009.77,0008.67
2022-07-24 14:51:00,,0831.0,4.99,0.00,32.4,28.2,00.0,40.4,32.6,34.4,-000.9,0014.74,0009.68,0008.59
2022-07-24 14:52:00,,0831.0,5.01,0.00,32.4,28.4,00.0,40.4,32.6,34.9,-000.8,0014.73,0009.60,0008.48
2022-07-24 14:53:00,,0831.0,5.01,0.00,32.4,28.5,00.0,40.4,32.7,34.8,-000.7,0014.65,0009.49,0008.37
2022-07-24 14:54:00,,0831.0,5.01,0.00,32.5,28.6,00.0,40.5,32.8,34.1,-000.3,0014.40,0009.34,0008.25
2022-07-24 14:55:00,,0831.0,5.00,0.00,32.5,28.7,00.0,40.5,32.8,33.9,-000.6,0014.21,0009.26,0008.17
2022-07-24 14:56:00,,0831.1,5.00,0.00,32.5,28.9,00.0,40.5,32.8,34.1,-000.9,0014.08,0009.25,0008.12
2022-07-24 14:57:00,,0831.0,5.00,0.00,32.5,28.9,00.0,40.5,32.8,34.4,-000.6,0014.09,0009.22,0008.07
2022-07-24 14:58:00,,0831.0,5.01,0.00,32.5,29.0,00.0,40.5,32.8,34.4,-000.4,0014.04,0009.22,0008.08
2022-07-24 14:59:00,,0830.9,5.01,0.00,32.4,29.1,00.0,40.6,32.8,34.9,-000.4,0013.64,0009.25,0008.13
